Northeast Philadelphia, PA

6:18 AM EDT on October 16, 2019 (GMT -0400)
Northeast Philadelphia

Weather History for KPNE - August, 2019

Change the Weather History Date:

Sunday, August 25, 2019

  Actual Average Record
Temperature  
Mean Temperature 70 °F -  
Max Temperature 79 °F 81 °F 95 °F (2007)
Min Temperature 61 °F 64 °F 59 °F (2005)
Cooling Degree Days 5    
Growing Degree Days 20 (Base 50)    
Moisture  
Dew Point 56 °F    
Average Humidity 63    
Maximum Humidity 81    
Minimum Humidity 43    
Precipitation  
Precipitation 0.00 in - - ()
Sea Level Pressure  
Sea Level Pressure 30.24 in    
Wind  
Wind Speed 7 mph ()    
Max Wind Speed 17 mph    
Max Gust Speed 22 mph    
Visibility 10.0 miles    
Events      
Averages and records for this station are not official NWS values.
T = Trace of Precipitation, MM = Missing Value Source: Averaged Metar Reports

Daily Weather History Graph

Daily Weather History Graph

Search for Another Location

Airport or City:

Astronomy

Aug. 25, 2019 Rise Set
Actual Time 6:20 AM EDT 7:42 PM EDT
Civil Twilight 5:52 AM EDT 8:10 PM EDT
Nautical Twilight 5:18 AM EDT 8:44 PM EDT
Astronomical Twilight 4:42 AM EDT 9:20 PM EDT
Moon 12:53 AM EDT (8/25) 4:01 PM EDT (8/25)
Length of Visible Light 14h 18m
Length of Day
13h 21m
Waning Crescent, 29% of the Moon is Illuminated
Aug 25
Waning Crescent
Aug 30
New
Sep 5
First Quarter
Sep 14
Full
Sep 21
Last Quarter

Hourly Weather History & Observations

Time (EDT) Temp. Dew Point Humidity Pressure Visibility Wind Dir Wind Speed Gust Speed Precip Events Conditions
12:54 AM 63.0 °F 52.0 °F 67% 30.25 in 10.0 mi Calm Calm - N/A   Clear
1:54 AM 64.0 °F 54.0 °F 70% 30.24 in 10.0 mi Calm Calm - N/A   Overcast
2:54 AM 62.1 °F 53.1 °F 72% 30.23 in 10.0 mi NNE 5.8 mph - N/A   Clear
3:54 AM 63.0 °F 54.0 °F 72% 30.23 in 10.0 mi NE 3.5 mph - N/A   Mostly Cloudy
4:54 AM 62.1 °F 55.0 °F 78% 30.22 in 10.0 mi NE 6.9 mph - N/A   Scattered Clouds
5:54 AM 61.0 °F 55.0 °F 81% 30.24 in 10.0 mi NE 5.8 mph - N/A   Partly Cloudy
6:54 AM 63.0 °F 55.9 °F 78% 30.25 in 10.0 mi NE 9.2 mph - N/A   Clear
7:54 AM 66.0 °F 57.9 °F 75% 30.26 in 10.0 mi NNE 11.5 mph - N/A   Clear
8:54 AM 68.0 °F 57.9 °F 70% 30.27 in 10.0 mi NE 12.7 mph - N/A   Partly Cloudy
9:10 AM 68.0 °F 57.9 °F 70% 30.27 in 10.0 mi NNE 15.0 mph - N/A   Mostly Cloudy
9:54 AM 72.0 °F 57.9 °F 61% 30.27 in 10.0 mi NNE 13.8 mph 19.6 mph N/A   Mostly Cloudy
10:37 AM 72.0 °F 57.9 °F 61% 30.27 in 10.0 mi NNE 13.8 mph - N/A   Mostly Cloudy
10:54 AM 72.0 °F 57.9 °F 61% 30.27 in 10.0 mi NE 15.0 mph - N/A   Mostly Cloudy
11:54 AM 73.0 °F 55.0 °F 53% 30.27 in 10.0 mi ENE 15.0 mph - N/A   Mostly Cloudy
12:54 PM 75.9 °F 55.0 °F 48% 30.25 in 10.0 mi ENE 9.2 mph 19.6 mph N/A   Scattered Clouds
1:54 PM 78.1 °F 54.0 °F 43% 30.24 in 10.0 mi East 17.3 mph - N/A   Partly Cloudy
2:54 PM 79.0 °F 55.9 °F 45% 30.22 in 10.0 mi ENE 16.1 mph 21.9 mph N/A   Scattered Clouds
3:54 PM 78.1 °F 54.0 °F 43% 30.21 in 10.0 mi East 12.7 mph - N/A   Partly Cloudy
4:54 PM 75.9 °F 54.0 °F 46% 30.21 in 10.0 mi East 11.5 mph - N/A   Mostly Cloudy
5:54 PM 75.0 °F 55.0 °F 50% 30.21 in 10.0 mi East 12.7 mph - N/A   Overcast
6:54 PM 73.9 °F 55.9 °F 53% 30.22 in 10.0 mi East 13.8 mph - N/A   Mostly Cloudy
7:54 PM 71.1 °F 57.0 °F 61% 30.22 in 10.0 mi East 12.7 mph - N/A   Clear
8:54 PM 68.0 °F 57.9 °F 70% 30.24 in 10.0 mi ESE 9.2 mph - N/A   Clear
9:54 PM 68.0 °F 57.9 °F 70% 30.23 in 10.0 mi ENE 5.8 mph - N/A   Scattered Clouds
10:54 PM 66.9 °F 57.9 °F 73% 30.23 in 10.0 mi ENE 5.8 mph - N/A   Clear
11:54 PM 64.9 °F 57.0 °F 75% 30.23 in 10.0 mi NE 5.8 mph - N/A   Clear